| time (UTC) | temp F | wind direction | speed MPH | gust MPH | rain 1hr in | rain 24hr in | rain mn in | humidity % | barometer mb |
| 20260507101420 | 58 | 110 | 2.0 | 2.0 | 0.00 | 0.00 | 0.00 | 66 | 1014.0 |
| 20260507100421 | 58 | 78 | 0.0 | 1.0 | 0.00 | 0.00 | 0.00 | 64 | 1013.9 |
| 20260507095421 | 58 | 0 | 0.0 | 0.0 | 0.00 | 0.00 | 0.00 | 64 | 1013.9 |
| 20260507094421 | 59 | 80 | 1.0 | 1.0 | 0.00 | 0.00 | 0.00 | 64 | 1013.8 |
| 20260507093421 | 60 | 0.0 | 0.0 | 0.00 | 0.00 | 0.00 | 62 | 1013.8 | |
| 20260507092421 | 60 | 83 | 1.0 | 1.0 | 0.00 | 0.00 | 0.00 | 61 | 1013.8 |
| 20260507091422 | 60 | 155 | 1.0 | 1.0 | 0.00 | 0.00 | 0.00 | 61 | 1013.7 |
| 20260507090421 | 60 | 0.0 | 0.0 | 0.00 | 0.00 | 0.00 | 61 | 1013.8 | |
| 20260507085422 | 61 | 270 | 1.0 | 1.0 | 0.00 | 0.00 | 0.00 | 59 | 1013.7 |
| 20260507084422 | 61 | 0.0 | 0.0 | 0.00 | 0.00 | 0.00 | 59 | 1013.7 | |
| 20260507083422 | 61 | 0 | 0.0 | 0.0 | 0.00 | 0.00 | 0.00 | 58 | 1013.5 |
| 20260507082442 | 62 | 141 | 0.0 | 1.0 | 0.00 | 0.00 | 0.00 | 58 | 1013.5 |
| 20260507081423 | 62 | 262 | 0.0 | 1.0 | 0.00 | 0.00 | 0.00 | 56 | 1013.6 |
| 20260507080423 | 63 | 0.0 | 0.0 | 0.00 | 0.00 | 0.00 | 56 | 1013.5 | |
| 20260507075423 | 63 | 0.0 | 0.0 | 0.00 | 0.00 | 0.00 | 55 | 1013.5 | |
| 20260507074423 | 63 | 0 | 0.0 | 0.0 | 0.00 | 0.00 | 0.00 | 53 | 1013.4 |
| 20260507073423 | 63 | 74 | 0.0 | 1.0 | 0.00 | 0.00 | 0.00 | 53 | 1013.4 |
| 20260507072443 | 64 | 0.0 | 0.0 | 0.00 | 0.00 | 0.00 | 52 | 1013.4 | |
| 20260507071423 | 64 | 0.0 | 0.0 | 0.00 | 0.00 | 0.00 | 52 | 1013.4 | |
| 20260507070424 | 65 | 0.0 | 0.0 | 0.00 | 0.00 | 0.00 | 52 | 1013.4 | |
| 20260507065424 | 65 | 0.0 | 0.0 | 0.00 | 0.00 | 0.00 | 49 | 1013.4 | |
| 20260507064444 | 65 | 0.0 | 0.0 | 0.00 | 0.00 | 0.00 | 50 | 1013.4 | |
| 20260507063424 | 66 | 204 | 0.0 | 0.0 | 0.00 | 0.00 | 0.00 | 50 | 1013.3 |
| 20260507062425 | 66 | 0.0 | 0.0 | 0.00 | 0.00 | 0.00 | 49 | 1013.2 | |
| 20260507061424 | 66 | 0.0 | 0.0 | 0.00 | 0.00 | 0.00 | 49 | 1013.2 | |
| 20260507060425 | 67 | 0.0 | 0.0 | 0.00 | 0.00 | 0.00 | 49 | 1013.3 | |
| 20260507055425 | 67 | 0.0 | 0.0 | 0.00 | 0.00 | 0.00 | 47 | 1013.1 | |
| 20260507054416 | 67 | 0.0 | 0.0 | 0.00 | 0.00 | 0.00 | 47 | 1013.2 | |
| 20260507053416 | 68 | 104 | 0.0 | 0.0 | 0.00 | 0.00 | 0.00 | 46 | 1013.3 |
| 20260507052456 | 68 | 0.0 | 0.0 | 0.00 | 0.00 | 0.00 | 46 | 1013.3 | |
| 20260507051417 | 68 | 0.0 | 0.0 | 0.00 | 0.00 | 0.00 | 46 | 1013.2 | |
| 20260507050417 | 69 | 0.0 | 0.0 | 0.00 | 0.00 | 0.00 | 46 | 1013.1 | |
| 20260507045426 | 69 | 0.0 | 0.0 | 0.00 | 0.00 | 0.00 | 44 | 1012.8 | |
| 20260507044426 | 69 | 0.0 | 0.0 | 0.00 | 0.00 | 0.00 | 44 | 1012.6 | |
| 20260507043426 | 69 | 0.0 | 0.0 | 0.00 | 0.00 | 0.00 | 44 | 1012.5 | |
| 20260507042426 | 70 | 0.0 | 0.0 | 0.00 | 0.00 | 0.00 | 43 | 1012.4 | |
| 20260507041418 | 71 | 0.0 | 0.0 | 0.00 | 0.00 | 0.00 | 42 | 1012.4 | |
| 20260507040418 | 71 | 0.0 | 0.0 | 0.00 | 0.00 | 0.00 | 40 | 1012.3 | |
| 20260507035418 | 72 | 0 | 0.0 | 0.0 | 0.00 | 0.00 | 0.00 | 38 | 1012.3 |
| 20260507034418 | 72 | 0.0 | 0.0 | 0.00 | 0.00 | 0.00 | 37 | 1012.2 | |
| 20260507033418 | 73 | 199 | 0.0 | 1.0 | 0.00 | 0.00 | 0.00 | 37 | 1012.1 |
| 20260507032420 | 74 | 0.0 | 0.0 | 0.00 | 0.00 | 0.00 | 37 | 1012.1 | |
| 20260507031439 | 75 | 0.0 | 0.0 | 0.00 | 0.00 | 0.00 | 36 | 1011.9 | |
| 20260507030419 | 75 | 0.0 | 0.0 | 0.00 | 0.00 | 0.00 | 34 | 1011.9 | |
| 20260507025419 | 76 | 0.0 | 0.0 | 0.00 | 0.00 | 0.00 | 32 | 1011.8 | |
| 20260507024419 | 76 | 0.0 | 0.0 | 0.00 | 0.00 | 0.00 | 31 | 1011.8 | |
| 20260507023420 | 77 | 259 | 0.0 | 1.0 | 0.00 | 0.00 | 0.00 | 30 | 1011.8 |
| 20260507022440 | 78 | 0.0 | 0.0 | 0.00 | 0.00 | 0.00 | 30 | 1012.0 | |
| 20260507021420 | 78 | 260 | 0.0 | 1.0 | 0.00 | 0.00 | 0.00 | 28 | 1012.0 |
| 20260507020420 | 79 | 0.0 | 0.0 | 0.00 | 0.00 | 0.00 | 26 | 1012.1 | |
| 20260507015420 | 79 | 277 | 0.0 | 1.0 | 0.00 | 0.00 | 0.00 | 26 | 1012.1 |
| 20260507014421 | 80 | 0.0 | 0.0 | 0.00 | 0.00 | 0.00 | 25 | 1012.2 | |
| 20260507013421 | 80 | 272 | 0.0 | 1.0 | 0.00 | 0.00 | 0.00 | 25 | 1012.1 |
| 20260507012421 | 81 | 294 | 0.0 | 1.0 | 0.00 | 0.00 | 0.00 | 22 | 1012.3 |
| 20260507011421 | 81 | 0 | 0.0 | 0.0 | 0.00 | 0.00 | 0.00 | 24 | 1012.3 |
| 20260507010421 | 82 | 298 | 0.0 | 1.0 | 0.00 | 0.00 | 0.00 | 22 | 1012.4 |
| 20260507005421 | 82 | 126 | 1.0 | 1.0 | 0.00 | 0.00 | 0.00 | 22 | 1012.5 |
| 20260507004502 | 83 | 259 | 1.0 | 1.0 | 0.00 | 0.00 | 0.00 | 20 | 1012.7 |
| 20260507003441 | 84 | 306 | 1.0 | 2.0 | 0.00 | 0.00 | 0.00 | 20 | 1012.6 |
| 20260507002422 | 83 | 161 | 1.0 | 1.0 | 0.00 | 0.00 | 0.00 | 20 | 1012.8 |
| 20260507001422 | 83 | 295 | 1.0 | 1.0 | 0.00 | 0.00 | 0.00 | 22 | 1012.7 |
| 20260507000442 | 83 | 293 | 1.0 | 1.0 | 0.00 | 0.00 | 0.00 | 22 | 1012.7 |
| 20260506235422 | 82 | 221 | 1.0 | 1.0 | 0.00 | 0.00 | 0.00 | 20 | 1012.8 |
| 20260506234422 | 83 | 126 | 1.0 | 3.0 | 0.00 | 0.00 | 0.00 | 22 | 1013.1 |
| 20260506233423 | 82 | 320 | 0.0 | 0.0 | 0.00 | 0.00 | 0.00 | 20 | 1013.2 |
| 20260506232417 | 82 | 290 | 1.0 | 1.0 | 0.00 | 0.00 | 0.00 | 22 | 1013.4 |
| 20260506231417 | 82 | 269 | 1.0 | 1.0 | 0.00 | 0.00 | 0.00 | 22 | 1013.4 |
| 20260506230417 | 82 | 265 | 1.0 | 1.0 | 0.00 | 0.00 | 0.00 | 24 | 1013.7 |
| 20260506225417 | 82 | 239 | 0.0 | 1.0 | 0.00 | 0.00 | 0.00 | 22 | 1013.9 |
| 20260506224417 | 81 | 282 | 1.0 | 2.0 | 0.00 | 0.00 | 0.00 | 22 | 1014.3 |
| 20260506223417 | 81 | 266 | 0.0 | 1.0 | 0.00 | 0.00 | 0.00 | 22 | 1014.5 |
| 20260506222424 | 80 | 283 | 0.0 | 1.0 | 0.00 | 0.00 | 0.00 | 22 | 1014.6 |
| 20260506221438 | 80 | 230 | 1.0 | 2.0 | 0.00 | 0.00 | 0.00 | 22 | 1014.8 |
| 20260506220418 | 80 | 286 | 0.0 | 1.0 | 0.00 | 0.00 | 0.00 | 20 | 1015.0 |
| 20260506215419 | 80 | 355 | 0.0 | 1.0 | 0.00 | 0.00 | 0.00 | 24 | 1015.2 |
| 20260506214418 | 78 | 266 | 0.0 | 1.0 | 0.00 | 0.00 | 0.00 | 20 | 1015.4 |
| 20260506213419 | 78 | 269 | 1.0 | 1.0 | 0.00 | 0.00 | 0.00 | 24 | 1015.7 |
| 20260506212419 | 77 | 255 | 1.0 | 2.0 | 0.00 | 0.00 | 0.00 | 24 | 1015.8 |
| 20260506211419 | 77 | 275 | 2.0 | 2.0 | 0.00 | 0.00 | 0.00 | 25 | 1015.9 |
| 20260506210420 | 76 | 268 | 0.0 | 1.0 | 0.00 | 0.00 | 0.00 | 24 | 1016.0 |
| 20260506205419 | 76 | 264 | 1.0 | 1.0 | 0.00 | 0.00 | 0.00 | 24 | 1016.1 |
| 20260506204440 | 75 | 255 | 1.0 | 1.0 | 0.00 | 0.00 | 0.00 | 22 | 1016.2 |
| 20260506203420 | 75 | 266 | 1.0 | 1.0 | 0.00 | 0.00 | 0.00 | 24 | 1016.3 |
| 20260506202420 | 74 | 270 | 1.0 | 1.0 | 0.00 | 0.00 | 0.00 | 24 | 1016.4 |
| 20260506201420 | 74 | 246 | 0.0 | 1.0 | 0.00 | 0.00 | 0.00 | 26 | 1016.5 |
| 20260506200420 | 74 | 254 | 2.0 | 3.0 | 0.00 | 0.00 | 0.00 | 25 | 1016.6 |
| 20260506195421 | 73 | 36 | 1.0 | 1.0 | 0.00 | 0.00 | 0.00 | 25 | 1016.7 |
| 20260506194421 | 73 | 254 | 2.0 | 3.0 | 0.00 | 0.00 | 0.00 | 24 | 1016.9 |
| 20260506193421 | 72 | 1 | 1.0 | 2.0 | 0.00 | 0.00 | 0.00 | 28 | 1017.0 |
| 20260506192421 | 72 | 318 | 1.0 | 1.0 | 0.00 | 0.00 | 0.00 | 26 | 1017.2 |
| 20260506191442 | 71 | 264 | 1.0 | 3.0 | 0.00 | 0.00 | 0.00 | 26 | 1017.5 |
| 20260506190421 | 71 | 120 | 1.0 | 3.0 | 0.00 | 0.00 | 0.00 | 28 | 1017.6 |
| 20260506185421 | 69 | 55 | 1.0 | 2.0 | 0.00 | 0.00 | 0.00 | 25 | 1017.7 |
| 20260506184422 | 69 | 295 | 1.0 | 1.0 | 0.00 | 0.00 | 0.00 | 30 | 1017.8 |
| 20260506183422 | 69 | 290 | 0.0 | 1.0 | 0.00 | 0.00 | 0.00 | 30 | 1017.9 |
| 20260506182422 | 68 | 282 | 2.0 | 3.0 | 0.00 | 0.00 | 0.00 | 28 | 1017.9 |
| 20260506181423 | 67 | 209 | 3.0 | 4.0 | 0.00 | 0.00 | 0.00 | 28 | 1018.2 |
| 20260506180443 | 66 | 302 | 1.0 | 3.0 | 0.00 | 0.00 | 0.00 | 30 | 1018.2 |
| 20260506175423 | 65 | 155 | 3.0 | 4.0 | 0.00 | 0.00 | 0.00 | 28 | 1018.3 |
| 20260506174443 | 65 | 121 | 3.0 | 5.0 | 0.00 | 0.00 | 0.00 | 30 | 1018.3 |
| 20260506173423 | 64 | 186 | 3.0 | 5.0 | 0.00 | 0.00 | 0.00 | 30 | 1018.4 |
| 20260506172423 | 63 | 94 | 3.0 | 4.0 | 0.00 | 0.00 | 0.00 | 28 | 1018.4 |
| 20260506171444 | 62 | 112 | 2.0 | 5.0 | 0.00 | 0.00 | 0.00 | 30 | 1018.4 |
| 20260506170423 | 62 | 117 | 4.0 | 5.0 | 0.00 | 0.00 | 0.00 | 30 | 1018.5 |
| 20260506165424 | 61 | 158 | 4.0 | 5.0 | 0.00 | 0.00 | 0.00 | 30 | 1018.5 |
| 20260506164424 | 60 | 90 | 2.0 | 2.0 | 0.00 | 0.00 | 0.00 | 31 | 1018.6 |
| 20260506163424 | 59 | 67 | 2.0 | 4.0 | 0.00 | 0.00 | 0.00 | 31 | 1018.6 |
| 20260506162424 | 59 | 132 | 4.0 | 6.0 | 0.00 | 0.00 | 0.00 | 32 | 1018.6 |
| 20260506161424 | 58 | 85 | 4.0 | 5.0 | 0.00 | 0.00 | 0.00 | 34 | 1018.6 |
| 20260506160425 | 57 | 247 | 2.0 | 3.0 | 0.00 | 0.00 | 0.00 | 34 | 1018.7 |
| 20260506155445 | 57 | 203 | 2.0 | 4.0 | 0.00 | 0.00 | 0.00 | 34 | 1018.6 |
| 20260506154445 | 56 | 112 | 4.0 | 5.0 | 0.00 | 0.00 | 0.00 | 34 | 1018.8 |
| 20260506153425 | 55 | 60 | 3.0 | 4.0 | 0.00 | 0.00 | 0.00 | 34 | 1018.8 |
| 20260506152425 | 55 | 112 | 3.0 | 4.0 | 0.00 | 0.00 | 0.00 | 37 | 1018.9 |
| 20260506151425 | 54 | 109 | 3.0 | 5.0 | 0.00 | 0.00 | 0.00 | 37 | 1018.8 |
| 20260506150426 | 53 | 99 | 2.0 | 3.0 | 0.00 | 0.00 | 0.00 | 38 | 1018.8 |
| 20260506145425 | 53 | 135 | 2.0 | 3.0 | 0.00 | 0.00 | 0.00 | 40 | 1018.8 |
| 20260506144446 | 52 | 105 | 3.0 | 4.0 | 0.00 | 0.00 | 0.00 | 41 | 1018.7 |
| 20260506143427 | 51 | 62 | 3.0 | 5.0 | 0.00 | 0.00 | 0.00 | 43 | 1018.7 |
| 20260506142427 | 50 | 97 | 3.0 | 4.0 | 0.00 | 0.00 | 0.00 | 44 | 1018.6 |
| 20260506141427 | 50 | 84 | 3.0 | 5.0 | 0.00 | 0.00 | 0.00 | 46 | 1018.5 |
| 20260506140427 | 49 | 166 | 2.0 | 3.0 | 0.00 | 0.00 | 0.00 | 46 | 1018.6 |
| 20260506135447 | 49 | 171 | 3.0 | 5.0 | 0.00 | 0.00 | 0.00 | 47 | 1018.5 |
| 20260506134447 | 49 | 55 | 2.0 | 5.0 | 0.00 | 0.00 | 0.00 | 47 | 1018.4 |
| 20260506133427 | 48 | 92 | 3.0 | 7.0 | 0.00 | 0.00 | 0.00 | 46 | 1018.3 |
| 20260506132427 | 48 | 150 | 2.0 | 2.0 | 0.00 | 0.00 | 0.00 | 46 | 1018.3 |
| 20260506131508 | 48 | 80 | 2.0 | 3.0 | 0.00 | 0.00 | 0.00 | 46 | 1018.0 |
| 20260506130427 | 48 | 174 | 1.0 | 1.0 | 0.00 | 0.00 | 0.00 | 46 | 1017.8 |
| 20260506125448 | 48 | 54 | 2.0 | 3.0 | 0.00 | 0.00 | 0.00 | 46 | 1017.8 |
| 20260506124428 | 49 | 150 | 2.0 | 2.0 | 0.00 | 0.00 | 0.00 | 46 | 1017.7 |
| 20260506123428 | 49 | 61 | 2.0 | 4.0 | 0.00 | 0.00 | 0.00 | 44 | 1017.7 |
| 20260506122428 | 49 | 69 | 2.0 | 3.0 | 0.00 | 0.00 | 0.00 | 44 | 1017.5 |
| 20260506121428 | 49 | 183 | 2.0 | 3.0 | 0.00 | 0.00 | 0.00 | 44 | 1017.5 |
| 20260506120429 | 50 | 85 | 2.0 | 3.0 | 0.00 | 0.00 | 0.00 | 44 | 1017.6 |
| 20260506115449 | 50 | 88 | 2.0 | 3.0 | 0.00 | 0.00 | 0.00 | 44 | 1017.4 |
| 20260506114429 | 50 | 124 | 1.0 | 2.0 | 0.00 | 0.00 | 0.00 | 44 | 1017.2 |
| 20260506113429 | 50 | 118 | 1.0 | 2.0 | 0.00 | 0.00 | 0.00 | 44 | 1017.2 |
| 20260506112429 | 51 | 149 | 2.0 | 3.0 | 0.00 | 0.00 | 0.00 | 43 | 1017.2 |
| 20260506111430 | 51 | 159 | 2.0 | 2.0 | 0.00 | 0.00 | 0.00 | 43 | 1017.2 |
| 20260506110430 | 51 | 55 | 1.0 | 1.0 | 0.00 | 0.00 | 0.00 | 43 | 1017.0 |
| 20260506105430 | 51 | 66 | 2.0 | 3.0 | 0.00 | 0.00 | 0.00 | 43 | 1017.0 |
| 20260506104430 | 52 | 63 | 3.0 | 3.0 | 0.00 | 0.00 | 0.00 | 43 | 1016.7 |
| 20260506103450 | 52 | 96 | 2.0 | 4.0 | 0.00 | 0.00 | 0.00 | 41 | 1016.5 |
| 20260506102430 | 52 | 53 | 2.0 | 3.0 | 0.00 | 0.00 | 0.00 | 41 | 1016.3 |